GFSCGP_sfc_rhum_057.txt.gz
RH
34 26 20 22 24 21 23 26 25 25 28 37 41 39 36 37 41 42 43 39 35 28 24 24 24 25 27 30 30 30 30 33 36 38 38 40 40 42 41 43 41 40 45 44
29 29 22 23 28 28 28 30 29 28 34 34 37 35 33 37 39 36 38 39 33 29 25 24 24 25 26 27 29 31 30 31 36 41 44 44 44 44 48 51 41 43 44 46
27 28 25 25 30 29 34 33 36 32 34 33 36 39 37 38 42 37 37 35 32 27 25 25 26 26 26 28 30 31 32 32 37 39 43 43 45 46 43 44 47 48 46 45
30 28 27 33 31 28 36 36 36 39 39 42 38 48 37 42 43 43 42 38 35 30 27 25 26 28 27 29 32 32 33 34 36 38 39 37 42 43 48 51 55 49 44 44
30 34 35 36 33 33 36 38 40 42 46 55 45 46 32 43 40 42 45 42 37 32 26 26 27 26 28 30 33 36 37 39 39 38 40 44 42 50 51 50 45 45 48 48
36 33 33 35 33 34 36 34 42 58 54 54 44 38 33 42 41 37 46 40 38 34 30 28 28 31 30 32 37 41 41 40 38 40 40 39 41 41 42 42 47 53 58 58
39 40 32 31 37 36 34 34 43 42 58 46 44 41 34 30 29 31 31 38 38 38 32 30 28 30 31 34 37 43 43 40 39 38 38 38 36 38 40 46 53 55 59 60
40 40 38 30 35 38 44 36 44 37 55 54 39 45 33 30 26 31 37 40 38 36 33 31 31 31 31 34 40 42 40 41 37 35 32 34 38 47 49 53 55 59 62 63
36 36 31 27 29 34 42 47 41 39 45 41 37 30 30 25 24 28 33 36 41 37 34 32 32 32 32 36 38 38 40 36 31 32 36 39 42 44 50 50 57 63 62 54
28 29 32 30 29 32 37 32 38 44 31 38 40 36 38 29 26 25 27 31 34 34 34 33 33 33 36 38 38 37 34 32 34 37 41 40 45 47 51 58 61 61 61 64
28 26 27 26 32 32 37 38 39 41 48 45 42 30 32 32 28 29 27 26 29 30 32 33 34 35 37 39 39 36 33 34 38 41 44 47 50 52 58 62 63 65 67 59
35 30 30 25 28 29 36 32 33 38 35 52 66 55 34 30 27 26 27 27 31 31 33 35 37 38 40 43 38 35 37 40 43 45 48 52 56 59 63 64 63 63 60 55
31 27 28 29 36 38 26 26 37 50 59 52 54 38 25 32 28 28 30 30 31 30 30 33 39 44 46 42 37 39 42 45 47 49 55 58 58 60 62 62 61 60 57 55
34 41 31 38 45 42 38 32 31 34 66 41 44 34 31 30 34 32 40 40 39 38 38 39 42 48 47 40 42 44 45 47 50 54 59 62 63 64 63 60 63 58 56 58
38 26 46 42 39 42 40 36 34 34 37 39 35 39 34 38 40 42 42 40 40 40 38 43 44 47 44 44 47 48 49 50 53 59 61 59 60 64 65 66 60 58 59 60
47 37 52 44 51 51 48 42 43 44 39 38 38 40 48 47 49 44 44 44 44 41 39 41 42 44 42 46 50 50 51 53 58 61 61 62 60 60 61 62 62 62 56 50
50 56 60 58 55 53 45 43 44 43 40 41 42 45 52 50 45 46 45 43 42 43 43 43 44 47 46 50 49 53 55 58 62 65 65 63 61 65 63 62 63 56 54 56
54 57 66 79 57 53 30 42 41 42 50 54 52 53 54 53 51 52 51 45 44 46 47 48 51 49 51 52 54 56 59 62 67 71 70 66 66 64 63 64 65 59 60 65
53 62 79 76 88 47 46 40 42 44 45 50 52 55 54 53 61 52 46 48 48 54 57 53 52 52 53 53 56 60 61 67 72 67 68 66 63 65 67 70 64 64 67 72
54 61 61 84 70 60 30 42 37 41 61 57 55 57 56 57 62 59 49 52 54 58 56 53 53 51 54 56 61 63 68 74 73 65 64 65 64 69 74 71 68 66 69 82
66 76 76 91 86 69 50 47 44 54 54 58 54 56 56 64 61 55 60 57 59 63 56 52 55 55 58 61 63 68 71 72 66 66 66 68 70 76 72 65 66 76 94 96
63 81 82 89 86 62 54 45 48 53 60 55 57 58 62 62 63 64 63 63 64 64 54 54 55 59 61 61 68 72 75 66 70 70 74 76 77 70 60 69 82 95 96 97
69 54 73 68 67 52 55 54 56 53 52 58 60 57 62 65 65 64 68 67 66 60 55 54 60 63 63 66 71 76 69 70 73 78 80 79 61 60 66 79 95 96 96 96
64 59 71 66 58 55 51 55 52 54 56 55 60 60 63 66 66 68 69 69 70 61 57 60 63 66 70 71 70 73 71 73 80 85 83 73 62 70 70 83 96 96 96 96
63 58 61 63 60 56 57 56 56 58 61 63 62 62 63 67 68 69 70 71 67 61 62 64 68 72 73 74 74 73 72 80 85 86 86 76 74 76 85 89 97 97 95 94
70 61 66 66 54 58 59 56 56 59 64 67 68 64 63 68 68 69 71 71 66 65 66 68 71 75 76 76 76 74 77 83 89 91 74 74 82 83 90 96 96 96 93 87

GFSCGP_sfc_rhum_060.txt.gz
RH
33 22 29 46 33 19 20 26 26 26 29 37 39 40 35 39 45 44 46 45 38 30 26 26 28 30 32 32 32 33 33 36 39 40 40 40 40 42 41 45 41 43 45 46
30 25 21 21 26 28 28 29 29 29 35 37 39 37 34 42 44 41 40 44 39 34 26 25 26 29 30 30 32 33 32 34 37 42 45 43 44 45 48 52 42 45 44 45
31 29 26 25 30 27 34 32 34 32 36 37 38 38 33 38 45 42 43 43 39 32 27 26 27 28 30 30 32 31 32 33 37 41 46 46 46 47 45 45 46 48 46 45
31 29 28 31 31 30 37 37 36 40 40 41 38 42 34 40 40 42 43 44 38 33 28 26 27 28 29 29 32 33 34 36 36 42 42 40 43 43 48 51 54 50 45 46
31 36 36 36 35 34 38 39 40 44 45 48 44 44 30 36 38 35 41 44 42 35 29 27 26 24 29 30 33 36 37 38 42 42 44 47 46 52 53 50 45 45 48 49
41 35 33 38 36 36 36 33 44 58 54 46 44 36 33 36 40 35 34 41 42 38 33 29 30 32 31 32 35 40 41 42 44 43 44 44 43 42 41 42 46 53 58 59
37 42 34 33 38 39 32 42 51 35 52 40 46 42 35 31 28 28 29 33 42 42 36 33 31 31 32 32 36 44 46 45 42 41 41 38 36 38 40 46 54 56 61 62
41 39 40 30 36 36 45 40 45 33 46 52 45 48 34 30 26 33 38 43 44 44 39 36 35 35 34 37 40 44 44 43 39 34 34 37 40 49 50 54 56 60 64 66
40 37 33 28 31 36 48 51 44 44 46 42 40 29 30 26 25 28 33 36 39 39 40 37 37 34 34 37 39 40 42 39 33 35 39 42 45 47 52 54 59 66 66 58
31 34 32 31 31 33 40 34 40 46 34 33 40 39 38 31 28 26 29 32 34 34 34 33 34 34 37 41 42 38 35 33 37 40 44 42 48 51 55 60 62 63 62 65
28 28 28 28 33 34 39 41 43 42 49 45 43 30 31 35 30 30 32 34 36 37 38 39 37 42 44 44 39 35 36 38 41 44 47 50 52 55 58 63 63 63 65 67
35 30 31 26 30 32 38 40 36 47 35 54 65 53 37 33 30 32 34 33 35 36 39 41 43 45 46 43 38 38 41 44 46 48 51 54 58 60 64 66 64 62 62 60
31 27 27 25 35 39 30 32 44 50 60 60 56 39 27 35 31 34 34 39 40 40 41 42 43 47 48 41 39 42 45 47 49 52 57 61 62 64 65 63 60 60 60 62
33 38 27 36 43 43 40 32 40 37 63 41 44 36 32 36 36 42 44 46 46 43 40 41 42 46 49 44 44 46 49 50 52 55 62 65 65 65 64 62 61 61 62 62
32 24 45 43 42 44 43 37 35 35 36 39 40 39 41 43 45 48 47 44 44 41 40 41 43 45 51 47 48 50 51 52 56 60 64 64 66 68 69 65 63 63 63 62
46 37 58 46 52 53 52 46 43 44 42 40 42 41 45 48 64 49 49 45 43 44 44 44 45 46 49 47 51 52 54 56 61 64 66 65 63 63 64 65 65 64 65 65
50 56 61 64 55 52 50 47 47 47 45 41 44 42 51 52 50 52 50 49 45 47 48 51 52 52 52 50 52 55 58 62 64 68 69 64 64 66 67 64 65 68 70 63
54 59 66 79 53 50 34 46 48 43 47 56 54 55 55 56 54 56 60 57 48 48 51 56 60 58 54 55 56 59 62 64 69 73 71 68 68 68 66 68 72 72 68 66
56 64 79 75 84 42 40 49 46 48 47 53 51 55 56 57 59 54 50 54 54 58 61 66 65 56 56 56 60 62 64 69 72 70 73 69 66 70 71 77 73 70 68 69
56 62 62 80 64 52 27 43 40 42 57 55 53 56 57 59 61 57 50 57 61 60 64 67 60 55 57 59 63 67 71 75 73 69 68 67 69 74 78 73 74 66 69 84
68 77 78 91 84 65 47 44 44 54 46 58 52 57 61 66 62 57 63 62 62 67 67 58 58 58 61 64 66 72 75 74 66 68 69 71 74 78 71 67 62 73 82 94
60 79 80 90 86 58 50 54 48 52 64 54 58 61 64 61 64 64 64 66 69 71 65 56 58 62 64 65 73 76 79 69 70 74 75 76 78 71 58 64 73 79 91 97
68 54 71 66 63 46 56 54 58 56 54 59 60 62 66 66 66 67 70 70 71 74 59 58 63 65 66 69 75 80 75 73 73 79 81 83 81 70 66 74 87 96 96 96
66 64 73 67 62 64 54 57 55 56 58 59 63 66 68 69 69 72 73 73 76 71 62 62 66 68 72 73 75 77 76 75 82 88 88 85 70 72 69 76 88 96 96 96
64 64 66 68 68 60 59 57 58 60 60 63 68 68 66 70 70 72 74 75 74 72 66 67 70 74 75 77 77 74 75 83 89 90 85 67 65 71 79 83 93 97 96 96
72 62 66 62 55 59 59 59 59 60 63 66 70 65 67 69 69 71 73 74 76 72 71 70 72 77 79 80 76 76 78 87 93 95 70 68 71 80 87 95 94 91 94 93

GFSCGP_sfc_rhum_063.txt.gz
RH
29 26 32 33 34 21 22 22 22 20 23 27 32 35 30 31 38 38 36 31 28 23 21 21 22 23 23 24 23 23 25 25 27 29 28 29 29 28 30 32 29 31 31 31
36 28 31 35 34 32 27 22 23 25 30 31 34 33 30 33 37 38 34 35 30 26 20 21 22 24 23 22 22 23 23 27 26 31 30 28 27 30 32 39 32 34 32 32
28 31 27 27 29 27 30 27 28 26 31 31 36 36 30 28 32 33 34 34 32 27 20 19 21 24 27 24 25 23 23 25 28 31 35 34 34 36 36 35 34 34 32 32
27 27 27 29 29 28 34 33 32 34 34 32 32 34 32 26 31 29 33 37 34 32 25 22 22 24 25 27 28 25 25 24 28 34 33 32 34 33 34 36 36 33 31 31
32 35 33 33 33 32 34 38 37 36 38 35 36 34 25 32 33 27 26 33 37 34 27 22 22 23 21 26 26 27 26 27 31 30 37 38 37 37 36 34 33 31 32 34
36 32 31 33 34 35 39 31 41 50 44 39 34 32 24 28 27 25 22 27 35 33 29 26 24 25 24 29 32 35 31 30 35 38 36 40 40 34 31 31 31 34 37 38
33 35 30 33 35 34 32 42 44 32 39 32 37 36 28 28 23 24 29 32 33 32 30 29 26 27 28 32 35 36 37 37 35 34 34 33 34 31 32 33 35 38 38 39
30 31 35 28 33 35 36 39 39 27 31 38 39 40 28 24 23 28 34 35 34 34 32 30 29 31 30 31 32 34 37 37 33 30 27 29 33 36 35 38 39 39 41 41
35 37 30 27 28 32 38 40 34 38 34 32 32 24 23 21 23 24 27 29 33 32 31 30 28 28 28 30 32 34 36 34 28 26 28 28 30 35 40 40 40 43 41 41
30 30 29 29 30 31 35 32 35 37 30 24 26 29 28 24 24 26 28 30 33 33 31 30 30 32 32 33 33 30 28 26 28 30 31 32 34 35 39 41 40 42 42 44
28 30 30 30 33 34 35 34 38 35 33 29 28 23 23 26 26 26 28 30 32 33 33 32 31 33 35 32 29 27 28 29 30 33 34 35 36 38 38 40 42 43 43 42
33 31 27 27 27 29 34 32 32 37 32 40 38 34 25 25 26 27 30 32 33 36 36 32 33 33 33 31 29 30 31 32 36 37 37 37 40 42 41 41 40 39 42 44
30 28 25 24 31 33 29 29 38 42 47 47 37 27 24 28 28 30 34 34 35 35 35 34 32 33 33 32 29 30 34 36 37 38 39 42 43 42 43 40 40 40 42 45
34 35 27 31 36 38 32 29 37 33 42 35 35 28 25 29 32 35 35 35 33 35 36 37 37 34 35 35 31 32 35 37 40 41 44 45 42 44 44 45 45 44 46 49
31 26 37 36 36 38 36 32 34 32 30 28 29 32 28 31 36 34 35 36 34 35 37 39 41 38 36 36 35 36 39 39 41 43 44 45 45 45 47 47 46 47 50 51
44 41 44 39 44 44 46 44 42 40 35 33 35 36 31 35 34 36 36 38 38 38 39 40 42 42 42 41 39 41 40 41 43 43 46 48 48 48 50 50 51 53 56 55
45 52 53 53 47 43 42 41 48 43 41 37 38 37 42 43 41 40 43 46 44 42 43 44 45 47 48 42 41 40 41 44 44 46 45 46 49 51 52 53 56 61 61 60
51 54 58 60 43 50 34 41 41 40 39 43 45 50 49 44 44 45 46 44 42 47 48 48 48 51 48 43 42 44 45 45 48 47 46 48 51 53 54 58 61 61 60 63
53 56 69 66 56 36 33 44 45 42 38 50 49 50 46 47 42 38 41 43 48 51 51 52 52 51 45 44 47 48 47 50 50 48 48 51 51 56 60 64 63 62 66 63
52 56 53 67 64 56 28 38 37 40 48 53 50 52 46 47 44 42 38 49 50 50 54 55 52 44 44 46 48 51 53 54 52 50 52 53 54 61 66 67 66 65 63 71
56 63 67 72 68 54 40 39 42 44 42 54 48 48 51 49 46 45 53 52 52 56 58 57 46 46 48 50 51 54 56 54 51 54 56 57 60 65 67 66 63 67 76 81
56 70 67 75 73 56 49 46 44 48 56 52 50 51 53 52 57 57 58 58 60 62 62 49 48 49 50 51 54 56 58 53 56 59 61 61 64 66 63 68 68 67 82 94
60 48 59 59 55 46 54 51 52 55 53 51 52 53 53 57 56 60 62 61 61 63 62 51 52 54 52 53 57 60 56 58 60 64 64 65 66 58 59 67 75 94 96 92
57 58 63 60 52 53 52 52 50 50 53 53 54 54 56 55 59 61 62 61 62 63 61 54 56 56 55 55 59 60 58 60 66 67 66 67 58 61 63 66 84 96 96 96
52 58 59 61 57 56 53 53 54 56 57 57 57 56 56 58 59 61 63 63 62 63 62 57 59 60 59 60 62 60 60 66 71 67 66 59 59 61 68 75 90 96 96 97
66 58 58 52 48 50 51 53 57 60 59 57 56 55 56 60 63 63 64 63 64 64 64 63 61 62 61 62 64 62 62 68 74 70 65 63 72 75 82 94 94 96 95 92

GFSCGP_sfc_rhum_066.txt.gz
RH
20 34 41 32 26 26 27 27 27 18 18 19 18 19 17 16 23 24 21 19 20 20 18 16 16 15 15 15 15 15 16 15 17 18 19 19 21 20 20 21 20 21 21 22
24 29 30 26 18 18 17 20 22 20 22 21 20 20 16 20 22 24 23 21 19 19 17 16 16 16 15 15 15 14 15 17 17 19 19 18 17 20 20 27 24 24 22 22
35 32 17 21 27 29 26 25 20 18 24 23 24 17 20 18 21 21 22 23 21 20 17 16 16 17 18 16 17 16 15 18 19 20 23 25 24 28 28 26 25 25 23 23
18 20 24 21 19 16 20 22 22 25 23 19 22 14 18 17 21 16 16 24 24 24 20 16 16 18 18 18 18 17 17 16 19 24 26 26 25 25 23 25 26 24 22 22
23 25 25 22 20 20 23 26 26 28 25 25 25 23 15 22 20 16 18 22 26 26 22 17 17 18 16 19 20 20 18 18 21 19 28 29 30 27 26 25 25 22 23 24
25 23 23 25 26 25 28 25 29 31 29 28 22 24 16 20 19 17 20 24 26 26 24 20 17 17 18 21 25 25 21 20 22 27 27 34 34 29 26 24 24 24 26 25
25 26 23 23 26 26 23 25 20 24 28 20 28 28 20 20 19 23 27 25 25 23 23 23 21 21 20 24 26 26 26 25 23 26 28 28 32 27 25 25 26 27 26 27
22 28 25 22 24 22 25 25 18 21 18 21 29 26 23 18 20 22 25 25 24 24 23 22 23 24 23 23 24 24 22 25 25 26 26 23 25 26 26 27 28 27 28 28
17 25 22 21 22 24 28 28 25 24 24 22 18 19 17 16 17 19 21 23 26 23 23 23 22 21 22 22 23 24 25 27 26 22 21 20 21 26 29 29 28 29 28 27
20 24 23 22 22 23 26 23 27 24 24 21 15 18 16 19 19 19 19 22 24 23 21 22 22 23 22 23 24 24 24 23 22 22 22 24 25 24 27 28 29 30 29 30
18 18 22 22 25 25 26 25 25 24 22 18 17 15 17 18 18 19 19 23 24 24 22 21 20 21 24 23 22 20 21 22 22 24 26 26 26 26 26 27 27 28 28 27
20 20 19 19 19 20 22 22 21 21 22 23 25 21 16 17 18 20 22 25 25 26 26 23 24 22 22 23 23 23 23 24 27 28 27 27 28 28 27 26 24 23 25 26
20 19 18 22 22 20 20 21 23 25 26 27 23 18 17 19 21 21 23 24 25 26 26 24 22 21 22 22 23 22 24 26 28 28 28 29 29 28 28 26 25 25 24 25
26 21 17 19 25 22 22 22 23 20 28 20 21 17 21 21 23 24 26 25 24 26 28 27 28 25 24 24 25 24 24 26 30 31 32 33 30 29 29 29 28 26 26 29
22 16 18 20 22 25 22 22 23 23 18 21 19 21 19 18 21 23 24 26 26 26 26 28 29 28 25 26 27 27 28 29 29 31 31 32 30 29 29 30 30 30 32 34
26 26 27 25 31 31 31 26 24 22 21 22 21 25 19 20 21 24 24 28 28 27 28 30 30 29 29 30 30 30 30 30 30 30 31 31 31 31 34 33 33 36 39 42
23 32 34 33 33 30 31 27 31 30 28 25 30 23 25 28 28 27 30 29 31 31 32 32 31 32 32 34 32 31 30 30 30 30 28 30 29 34 35 34 36 41 44 44
31 33 38 44 32 40 27 28 28 29 28 29 30 31 33 31 30 30 27 31 30 32 32 32 32 35 37 34 32 31 32 32 32 30 29 29 32 35 35 37 42 42 44 51
34 33 47 53 35 23 20 25 30 30 20 28 30 34 34 36 33 28 31 34 34 34 33 34 34 37 36 34 34 36 35 34 33 32 31 32 35 38 40 46 48 48 54 55
35 32 32 40 85 66 18 28 27 29 26 33 32 35 36 35 35 30 30 32 33 32 35 40 40 34 33 34 36 39 38 36 35 34 36 36 37 40 44 48 52 58 62 62
33 37 43 40 54 30 23 28 30 30 28 36 32 34 36 36 34 35 34 32 34 37 40 42 39 37 36 36 37 39 36 37 36 37 39 40 39 40 43 49 56 60 62 61
38 51 44 44 59 53 30 33 32 34 41 38 36 35 38 38 38 37 38 39 39 40 42 42 41 38 36 37 38 38 38 38 39 41 43 41 38 40 42 53 56 59 64 87
39 27 34 38 34 31 31 34 36 38 38 38 36 39 38 38 36 39 40 37 38 40 42 42 42 41 39 38 38 39 40 42 42 44 43 39 39 38 47 54 62 72 80 95
35 36 39 44 31 30 32 33 35 36 35 37 37 38 38 35 38 37 37 37 39 40 42 43 44 42 42 39 40 39 41 42 44 44 43 38 40 46 53 53 61 86 92 95
29 38 32 34 32 40 38 36 36 38 40 39 39 38 38 38 37 38 38 39 40 42 43 44 45 46 46 43 41 40 45 47 47 46 42 38 41 59 63 59 79 95 95 94
37 30 31 22 27 27 31 34 37 42 40 37 36 39 39 41 39 40 42 40 43 44 45 46 46 48 46 44 42 43 46 48 51 51 43 43 62 67 67 83 81 90 95 90

GFSCGP_sfc_rhum_069.txt.gz
RH
24 33 36 31 26 23 28 29 33 39 18 20 21 19 17 13 18 22 18 15 14 17 18 17 18 16 14 13 13 14 14 12 14 17 18 19 21 19 20 21 18 19 20 20
26 36 27 26 27 28 26 28 32 27 21 22 37 26 16 14 17 19 18 17 16 15 16 17 17 16 14 14 13 13 14 14 15 18 18 17 17 19 20 25 23 24 23 21
29 26 24 33 25 24 26 28 28 26 26 28 23 24 14 17 17 17 17 19 17 16 16 16 16 16 17 15 15 14 14 15 16 18 20 23 21 28 28 27 28 26 23 22
29 23 24 26 32 27 33 24 25 22 22 23 18 20 15 14 17 14 15 19 20 19 17 16 16 17 16 17 16 15 14 14 16 19 22 25 26 27 24 24 25 25 23 21
22 19 26 32 23 24 27 20 19 21 19 19 17 22 12 16 18 16 18 22 23 22 19 17 16 17 15 17 17 17 15 15 16 17 25 30 29 27 25 25 26 25 22 22
20 20 20 23 26 21 22 22 23 23 20 23 13 20 13 17 17 18 21 23 24 23 21 17 16 16 17 19 21 23 20 18 19 22 22 29 34 30 29 27 26 25 25 25
21 21 22 20 26 24 22 21 23 27 31 20 19 20 15 18 20 23 24 23 23 22 22 20 19 19 20 23 25 25 25 23 20 20 23 26 31 32 29 26 25 26 26 27
23 29 23 21 22 20 22 19 18 22 17 17 22 20 20 17 18 21 22 22 22 22 22 22 22 22 21 22 22 22 22 21 21 21 23 25 26 29 26 26 27 28 29 29
21 27 20 20 20 21 23 21 21 19 16 18 13 17 16 16 18 19 20 22 23 22 22 21 20 20 20 21 22 22 22 23 24 23 21 20 20 23 27 28 27 30 28 28
16 24 21 22 20 21 24 20 24 20 23 24 15 14 15 19 18 17 18 21 21 20 20 20 20 21 19 20 21 20 20 21 21 20 20 22 23 23 25 27 28 29 28 29
16 16 23 22 24 21 24 22 20 22 19 20 18 17 14 16 16 16 18 20 21 21 20 19 18 19 20 19 19 19 19 20 20 22 24 25 25 24 25 27 27 27 26 24
18 19 20 19 17 17 21 19 19 22 21 16 20 19 13 14 15 16 18 22 22 23 22 21 20 19 18 19 20 20 21 22 24 26 26 25 26 27 27 26 25 23 23 24
18 17 19 21 19 17 18 17 16 17 22 23 23 20 14 16 17 17 19 21 22 22 22 21 20 20 20 20 20 21 21 23 25 26 26 27 29 30 29 27 24 23 23 23
33 18 18 22 26 16 18 18 17 17 23 20 19 18 19 19 20 19 20 21 20 23 24 23 25 23 21 19 19 20 22 22 25 28 29 32 30 31 30 26 26 25 24 25
23 18 14 15 16 17 16 17 18 19 16 19 17 19 15 15 17 17 19 21 21 22 23 25 26 24 21 20 21 22 24 26 26 28 30 31 30 29 26 28 28 27 27 28
20 20 18 17 20 21 22 20 18 18 18 17 18 21 16 16 16 18 20 21 24 24 25 26 24 23 23 24 26 26 27 27 27 28 30 31 28 28 30 30 29 29 31 32
18 24 26 28 26 26 29 24 24 24 22 21 23 24 21 22 22 22 22 25 25 27 27 26 24 25 26 28 28 29 28 27 29 30 28 26 27 29 30 30 30 35 37 35
23 26 33 41 31 39 26 22 21 22 21 22 24 26 26 24 22 22 25 26 26 27 27 26 25 27 29 31 30 29 30 32 32 28 27 27 28 31 32 32 36 36 37 42
28 26 39 51 35 19 20 23 23 23 17 20 23 25 26 28 29 28 25 28 27 27 26 26 26 29 29 31 31 33 35 34 30 29 29 30 31 34 36 39 39 39 44 52
28 28 32 34 82 59 20 23 22 23 25 24 23 27 27 31 31 35 28 25 26 25 27 30 32 29 28 30 31 37 37 33 31 32 33 32 33 36 37 39 41 43 49 55
31 33 39 36 50 27 20 23 26 25 30 27 24 25 29 35 34 32 26 25 26 28 30 32 33 32 32 31 33 37 35 32 32 34 34 36 36 35 34 38 40 49 54 55
34 44 39 31 49 55 24 29 26 33 32 30 29 30 33 34 32 29 29 29 30 32 33 32 35 35 32 32 34 36 37 33 35 37 38 38 35 32 31 39 47 50 56 76
34 20 26 31 33 27 25 30 34 31 30 32 32 34 32 32 28 29 31 29 30 32 33 32 35 37 35 33 34 38 39 36 38 39 40 37 35 31 33 46 57 64 74 84
23 27 31 36 20 24 25 23 29 31 30 31 31 35 30 29 28 28 28 30 31 32 34 35 36 37 37 35 37 38 37 37 40 40 39 38 35 36 40 54 59 77 88 93
26 29 22 23 20 29 29 25 26 32 32 34 32 30 29 28 29 29 30 31 32 34 35 35 38 39 40 38 39 38 38 41 44 41 41 39 36 43 56 61 68 90 92 95
26 20 25 19 18 20 23 26 28 35 37 33 31 30 30 30 31 31 33 33 34 36 37 38 40 41 41 40 40 40 41 43 45 46 44 41 44 57 66 74 74 72 88 89

GFSCGP_sfc_rhum_072.txt.gz
RH
31 43 49 36 37 35 31 40 44 42 32 49 57 42 35 29 24 27 29 24 22 26 27 27 28 24 21 19 20 22 22 19 25 29 33 35 37 35 36 36 27 27 30 30
40 48 33 30 27 31 30 36 48 49 25 31 41 47 41 34 26 27 24 24 24 23 25 26 26 24 20 20 20 21 21 21 26 32 33 34 35 39 40 45 36 34 33 33
43 33 27 27 31 32 34 36 38 35 31 39 44 41 32 22 21 21 22 26 25 25 23 24 25 25 25 22 23 21 21 22 28 28 35 37 40 43 45 44 45 41 35 33
30 29 27 39 38 35 40 28 33 32 36 48 28 41 28 25 24 20 24 28 29 28 25 23 24 26 25 25 24 22 22 22 24 30 34 39 48 48 48 49 51 47 35 34
37 38 40 36 38 31 35 31 40 39 34 31 33 38 30 23 26 26 29 30 32 29 27 25 24 25 23 24 26 24 23 22 25 28 38 45 50 51 49 45 41 41 39 35
27 21 32 31 25 24 26 30 30 36 34 40 23 27 30 29 25 29 30 31 32 31 29 25 25 24 25 31 32 32 29 28 28 32 32 44 46 50 51 51 49 49 47 46
27 26 28 28 38 33 30 34 51 55 53 45 22 26 33 26 28 29 31 32 33 32 30 28 29 30 31 35 36 34 36 37 32 30 35 36 46 49 51 46 46 45 48 49
36 38 32 28 31 31 33 34 38 44 42 37 29 32 34 25 28 28 29 31 31 34 33 32 31 31 30 32 34 36 35 36 33 32 36 37 38 47 47 46 47 48 49 50
43 33 23 22 22 27 31 38 34 30 22 28 26 28 25 23 26 28 29 31 35 33 32 31 30 30 33 33 31 31 33 35 35 33 33 32 33 40 46 42 42 50 47 42
24 34 25 24 26 30 31 26 37 33 36 40 24 31 32 28 28 27 30 32 32 30 30 31 30 30 30 30 30 29 28 30 30 31 32 34 36 35 38 42 44 44 44 43
28 25 33 29 32 32 33 32 31 31 32 35 35 36 23 25 24 25 27 28 29 29 28 28 28 30 29 28 28 28 28 29 31 35 37 38 38 37 39 41 42 43 43 40
35 35 30 27 22 21 27 29 25 38 34 29 34 43 19 21 22 24 27 28 30 30 31 29 28 28 28 30 31 31 30 31 35 36 37 37 39 40 43 42 41 38 36 36
37 29 33 35 32 26 28 26 26 25 35 40 46 38 19 21 23 23 29 30 31 31 31 29 31 32 31 29 28 29 31 33 33 36 40 42 43 46 46 44 39 35 36 36
42 33 29 40 38 27 25 22 22 25 40 30 34 31 26 25 26 26 28 29 30 30 29 34 38 34 31 29 28 30 32 34 37 38 42 45 47 46 45 41 39 38 37 36
34 34 20 20 19 19 21 23 23 24 24 31 28 26 24 25 27 25 28 27 27 29 30 34 36 34 32 31 32 33 37 38 38 39 42 46 45 41 40 41 41 40 39 37
30 36 28 24 21 26 27 24 23 23 22 23 24 29 26 24 23 23 26 27 29 32 33 32 30 30 32 34 38 38 38 38 38 41 44 43 40 40 44 42 43 42 44 45
29 35 38 47 34 33 40 33 30 28 26 32 34 40 29 29 26 29 30 29 31 35 34 33 32 33 36 40 39 42 41 41 44 44 42 37 38 41 43 43 43 47 49 50
32 36 50 75 46 59 40 29 28 30 28 31 34 36 38 33 31 30 33 34 36 34 33 33 35 38 41 41 42 42 44 46 46 44 39 39 41 43 45 47 50 51 50 53
36 41 63 78 65 37 33 31 32 32 32 30 33 34 32 34 38 42 35 34 35 34 35 36 39 41 41 40 41 45 49 49 47 42 42 44 44 46 49 52 55 53 52 66
34 37 50 56 85 75 37 28 30 34 45 34 30 34 35 42 60 57 36 31 32 33 36 40 43 42 41 43 43 49 51 50 47 44 47 46 47 50 51 53 53 52 65 56
45 50 63 60 82 53 30 29 37 50 52 36 34 35 38 50 55 44 31 32 34 37 40 42 45 48 46 44 46 50 51 51 46 46 48 49 49 51 50 50 50 67 62 55
50 71 65 52 73 65 33 37 42 46 43 39 41 42 51 49 42 38 35 37 39 44 44 42 47 49 48 46 47 51 54 50 48 50 52 52 52 46 39 50 68 67 61 75
55 38 52 61 62 40 34 48 48 42 43 46 44 44 48 45 39 37 39 40 40 44 43 44 50 50 49 47 49 55 55 52 50 53 56 55 51 47 45 66 69 68 75 85
38 37 49 42 36 37 33 35 40 43 43 42 46 44 44 40 36 36 36 39 40 42 45 46 48 51 52 52 50 53 53 50 53 58 58 56 56 50 60 65 64 78 90 96
40 38 33 33 31 39 37 33 37 41 40 42 44 42 39 39 38 38 40 41 43 45 48 49 52 55 56 54 54 53 54 55 58 60 58 58 55 62 71 64 73 84 94 90
38 36 41 44 28 36 42 38 37 46 46 44 42 39 38 39 39 40 43 45 47 50 52 54 54 57 59 57 57 56 56 57 63 64 62 63 64 72 70 78 78 72 76 79

GFSCGP_sfc_rhum_075.txt.gz
RH
41 56 65 63 54 49 46 50 55 61 61 65 79 62 51 37 36 30 24 29 31 38 37 40 29 24 24 24 24 24 25 25 28 33 34 36 35 37 38 40 33 35 36 35
53 62 49 44 47 47 49 55 69 56 36 41 58 49 40 41 40 27 25 24 29 33 40 35 25 24 23 26 25 26 22 24 27 33 35 36 39 43 41 46 36 36 34 35
60 45 43 48 41 47 48 57 69 61 55 36 42 46 40 36 27 25 25 26 29 29 35 36 30 24 25 26 28 25 24 25 31 31 40 44 47 48 48 48 47 42 37 38
60 51 42 48 46 41 51 41 40 37 47 61 43 56 34 33 27 31 33 35 34 33 33 31 30 28 26 25 27 25 25 26 29 31 40 41 47 46 48 49 52 48 44 39
61 56 50 48 47 50 55 43 42 40 45 40 42 43 35 35 36 39 39 35 34 34 34 30 29 27 26 29 27 27 27 27 29 35 40 46 51 57 57 55 51 51 46 42
50 46 48 38 39 43 37 39 46 41 42 46 35 39 36 36 35 42 41 39 35 34 33 31 30 28 29 32 31 31 30 32 33 37 42 45 46 49 55 57 55 56 55 53
41 39 39 52 45 48 43 51 63 62 53 48 30 38 34 34 35 38 39 40 38 39 36 36 35 38 41 42 42 38 37 37 37 36 38 43 50 54 55 53 53 51 53 53
50 47 39 42 52 38 49 44 60 56 63 50 28 38 36 34 37 37 36 39 39 41 40 36 34 35 36 36 39 38 39 40 40 40 41 46 48 54 51 48 52 52 53 54
66 47 36 33 38 39 41 44 36 33 30 40 41 36 30 37 37 38 39 38 40 38 37 36 37 37 37 36 35 36 40 40 37 35 38 40 41 45 49 46 46 52 53 47
47 43 33 32 30 32 38 32 32 40 34 47 35 42 40 39 39 37 39 41 39 37 36 36 36 35 35 34 33 31 31 32 34 36 41 41 43 43 45 48 47 47 48 48
35 42 44 33 38 37 32 38 35 35 41 42 40 40 31 33 34 37 37 36 37 36 36 36 35 33 33 32 32 32 32 32 37 40 42 41 42 43 46 48 49 48 47 42
32 40 41 34 26 25 31 34 31 44 34 36 48 46 25 28 30 31 34 34 36 36 36 34 35 36 37 37 36 35 34 35 38 41 41 43 47 49 51 52 48 43 40 42
39 37 41 34 31 26 32 29 29 35 48 42 50 39 24 27 30 32 37 38 37 35 34 37 39 38 35 33 34 36 38 41 40 43 45 47 48 50 55 50 44 42 43 43
43 40 35 49 42 33 29 25 29 32 46 38 39 35 30 28 30 34 37 38 38 36 35 42 41 38 36 35 36 38 40 43 43 45 48 49 53 53 48 44 44 44 44 46
38 35 26 25 24 23 26 27 27 27 30 33 33 32 29 28 30 30 34 36 36 36 39 39 38 38 38 39 42 42 43 44 44 45 49 52 50 44 44 47 48 48 47 45
33 39 32 28 25 28 30 27 28 29 27 27 31 35 34 31 30 32 34 32 36 40 37 35 33 35 37 43 46 44 46 47 49 51 50 47 42 44 48 49 49 50 51 53
31 39 50 57 37 38 43 40 34 31 28 28 36 34 32 32 30 34 34 34 40 40 37 36 37 39 43 46 44 48 50 52 52 53 48 43 45 48 49 49 51 54 57 58
35 42 61 84 53 59 39 34 34 35 32 39 40 38 36 34 38 43 42 43 41 38 37 38 43 45 46 46 47 48 50 54 54 54 48 47 49 50 51 54 56 60 61 61
43 53 69 76 78 46 35 32 34 33 36 33 38 41 37 42 45 49 40 40 40 39 41 45 48 47 48 47 47 50 53 55 55 52 51 51 51 54 56 59 62 62 64 69
38 44 60 66 71 61 36 34 33 32 30 38 36 41 45 47 58 63 41 38 40 42 44 46 47 49 51 49 51 53 55 57 55 53 52 53 54 56 59 62 64 62 75 71
52 59 65 74 82 62 43 33 38 21 28 38 35 40 50 52 56 50 40 39 40 43 43 47 52 54 55 53 53 55 58 59 54 52 53 55 57 59 61 59 62 79 78 75
54 74 72 70 75 59 38 38 25 32 49 42 45 56 58 54 48 44 42 43 45 45 48 49 52 54 53 54 57 58 62 56 57 54 57 59 61 56 48 67 79 79 81 88
54 52 65 59 59 45 42 41 50 49 46 48 49 59 53 50 45 44 45 43 43 44 46 47 52 55 55 56 58 62 60 60 57 59 63 64 61 59 59 76 80 77 86 89
47 43 46 44 38 40 37 48 46 44 48 48 52 53 49 46 44 43 45 45 45 47 48 50 55 57 59 59 59 61 61 58 59 65 68 66 67 66 71 73 71 82 87 94
41 40 41 45 36 46 39 41 48 46 51 52 48 44 46 45 43 45 47 46 48 50 54 57 59 62 63 64 63 62 61 62 65 70 69 69 69 73 80 77 81 86 89 94
46 41 44 39 34 40 45 43 49 53 53 52 46 44 43 45 45 46 48 50 52 56 56 58 63 65 66 67 66 64 64 65 70 73 73 76 79 82 82 87 82 73 74 73

GFSCGP_sfc_rhum_081.txt.gz
RH
41 61 73 69 60 53 58 59 59 59 53 60 70 70 67 73 76 66 58 41 32 42 59 66 65 54 36 35 32 29 30 34 35 42 44 46 46 48 50 50 42 40 45 46
59 61 50 50 57 51 52 52 64 57 68 60 67 59 66 60 57 52 51 44 31 46 58 62 52 39 35 32 31 30 28 33 34 39 42 41 43 46 47 53 48 46 44 45
63 54 47 58 63 56 63 64 66 61 68 53 68 64 55 50 50 34 34 35 35 36 56 55 44 38 32 30 29 28 30 31 35 36 50 54 52 55 52 52 49 46 45 45
61 56 53 69 68 63 75 61 61 68 73 83 70 81 48 41 42 37 40 42 43 41 54 45 40 36 32 30 30 28 29 29 32 40 43 43 47 48 52 52 55 51 46 45
66 70 67 68 60 61 64 60 68 72 79 81 58 60 51 44 42 41 44 44 44 42 48 42 37 33 33 32 32 30 30 31 34 41 44 48 51 53 57 62 59 60 60 57
68 62 68 64 61 61 66 62 72 77 78 76 56 58 54 42 37 46 48 47 44 41 44 41 34 32 34 36 37 36 33 34 39 43 48 49 51 58 64 67 66 64 65 61
70 71 64 67 63 64 70 81 84 85 80 71 50 57 50 34 38 43 43 52 46 48 51 42 37 40 42 40 42 40 41 43 41 41 47 50 54 56 59 61 64 60 58 58
77 71 65 60 65 65 78 80 72 65 62 50 51 52 36 44 46 46 46 48 49 51 50 48 47 48 48 47 47 47 48 48 48 50 55 60 64 69 65 61 60 60 60 60
82 82 59 53 50 63 66 73 57 44 45 52 47 39 38 50 49 51 49 48 50 49 49 48 46 45 46 47 49 49 44 43 44 44 46 48 51 52 55 55 56 61 60 52
52 76 40 48 46 47 43 60 46 65 42 40 40 47 41 56 52 51 52 51 48 46 45 44 42 41 41 39 40 40 40 40 43 45 48 48 50 51 54 54 54 54 54 48
38 46 42 36 38 50 41 46 41 40 42 43 44 40 38 44 48 50 51 49 46 45 43 42 41 40 39 38 38 39 38 40 44 48 50 51 54 54 56 55 55 52 49 46
39 45 41 36 33 26 41 42 35 49 41 48 51 41 32 35 46 45 48 46 46 43 42 40 42 42 42 42 43 43 43 41 44 49 50 52 54 56 58 57 54 49 48 48
34 48 46 39 32 26 33 37 39 42 53 47 50 38 34 47 47 44 46 46 44 43 44 44 45 43 40 43 43 45 47 48 50 51 52 53 55 58 58 54 50 50 50 51
43 45 38 43 37 35 32 32 38 38 53 47 47 37 35 44 46 45 44 44 44 42 42 46 46 44 44 45 46 48 49 51 51 52 54 55 59 55 52 51 52 52 52 54
37 42 33 30 34 28 29 28 35 34 38 39 38 36 31 35 41 40 41 44 43 43 46 45 46 46 48 50 51 51 52 52 53 54 55 56 57 52 51 53 53 53 55 54
40 35 38 28 28 34 33 27 33 33 33 32 36 35 35 35 40 42 43 42 42 45 48 44 42 44 46 50 52 51 53 54 56 58 57 57 53 52 55 56 57 59 60 61
34 43 48 42 53 44 46 42 35 32 31 30 35 32 35 37 34 39 44 42 44 49 47 44 44 47 50 52 51 54 55 58 60 60 59 57 54 54 57 58 60 63 66 69
39 60 73 82 55 59 40 37 38 36 36 38 39 39 38 42 52 51 49 46 50 46 45 47 50 51 52 52 52 56 58 60 60 60 60 58 56 58 60 63 66 70 72 72
47 61 69 71 72 45 39 37 30 42 35 42 39 41 49 50 49 51 49 51 49 47 49 52 54 54 55 54 55 57 59 62 63 62 62 60 59 62 64 68 72 74 75 80
49 58 56 72 66 63 32 35 36 21 29 39 43 48 51 52 51 55 50 47 49 51 53 54 56 56 57 57 60 60 62 66 65 63 63 62 62 66 69 72 74 73 82 81
48 60 68 79 80 59 46 38 34 21 26 42 47 52 58 52 51 51 51 51 52 52 51 53 55 55 56 60 62 62 66 67 63 65 65 64 66 70 71 73 74 82 85 83
49 70 71 78 78 57 41 39 22 28 58 49 54 56 58 60 59 55 52 54 52 52 56 54 56 58 60 63 66 66 70 65 68 70 67 67 72 66 62 76 81 84 88 90
57 46 56 62 58 44 40 31 39 50 46 55 55 63 58 58 55 55 57 55 53 52 52 55 59 60 63 66 70 72 69 69 70 68 70 75 74 73 78 81 86 90 89 94
50 54 56 51 42 47 45 47 51 51 48 53 58 58 54 54 56 54 55 54 53 54 54 57 62 65 68 70 71 74 74 72 72 73 78 80 82 84 85 83 86 93 92 95
47 49 46 48 40 44 38 46 50 52 57 59 57 55 54 52 54 54 55 54 55 56 60 64 66 70 69 73 74 75 75 76 76 81 83 84 87 91 91 91 92 90 92 89
47 42 45 40 32 28 28 45 54 61 59 59 54 54 54 52 54 55 58 57 59 61 63 65 67 70 72 76 77 76 76 77 80 83 85 92 94 93 95 95 88 75 76 73

GFSCGP_sfc_rhum_087.txt.gz
RH
44 51 61 54 46 40 56 60 52 49 48 53 58 53 52 63 70 57 57 62 58 55 48 50 65 75 79 86 87 87 81 63 49 37 36 35 34 35 37 37 33 35 35 36
52 59 45 50 48 48 35 54 50 63 58 49 64 58 58 63 64 62 53 47 46 36 42 55 60 73 80 86 83 81 78 61 38 34 34 32 31 35 34 42 38 38 38 37
59 43 45 47 54 56 40 51 59 52 55 52 61 56 53 51 52 56 50 53 57 57 35 53 62 64 72 79 81 71 64 53 44 33 38 40 40 41 42 41 40 39 36 37
65 48 47 60 53 55 56 51 58 72 66 62 56 61 58 50 47 49 48 39 44 40 37 50 63 57 59 73 70 63 57 36 32 36 35 35 37 36 35 36 38 37 36 35
60 65 68 54 51 57 53 67 66 79 74 66 56 60 52 34 38 38 38 35 34 33 35 49 57 48 46 54 52 52 36 29 30 31 37 38 38 38 40 39 39 41 43 42
71 63 72 56 70 72 71 73 76 75 75 74 60 58 58 43 33 34 35 36 36 33 34 43 49 38 39 44 46 40 31 30 34 38 38 41 41 38 41 44 44 46 47 45
69 68 70 67 67 69 74 68 92 85 77 69 48 64 48 37 29 31 34 35 34 36 36 39 41 39 39 43 42 38 36 36 33 35 36 38 43 41 41 43 45 47 43 43
91 79 67 60 64 65 78 74 93 78 78 66 54 61 47 33 40 41 38 38 39 39 42 39 40 41 38 40 37 36 35 37 35 35 37 39 44 46 46 48 45 42 42 42
95 94 60 60 60 62 73 80 56 41 40 50 50 36 29 40 43 42 40 40 43 44 44 42 42 38 38 38 38 39 40 41 40 40 42 42 44 46 47 44 42 44 43 42
80 77 61 73 53 47 64 61 67 75 51 40 33 36 41 39 42 44 41 40 43 45 44 44 42 43 42 41 40 38 36 35 36 36 35 38 38 39 42 42 42 44 40 39
70 66 54 69 64 53 47 51 57 64 59 52 42 34 28 29 39 44 41 40 42 44 43 41 39 40 41 36 34 34 34 34 36 36 38 39 40 40 39 39 40 40 38 36
39 47 60 72 50 29 39 38 56 64 52 42 42 42 24 27 28 42 42 42 42 43 42 38 36 34 32 34 34 34 35 37 41 41 40 41 41 41 40 39 38 35 35 37
40 48 48 41 40 44 55 44 40 42 46 43 42 37 27 37 39 43 43 42 42 42 40 37 35 34 34 34 35 36 39 42 42 41 41 42 41 41 41 38 36 34 35 35
45 49 44 45 39 39 46 40 39 37 48 39 37 32 28 28 41 45 45 42 40 41 40 39 39 37 37 37 38 39 40 40 44 42 42 43 41 42 40 38 37 37 36 38
41 42 40 36 35 34 28 28 37 38 36 34 36 36 29 27 31 41 42 45 43 42 42 41 41 38 39 40 39 40 41 40 40 41 42 43 44 43 40 40 40 39 41 40
42 39 41 35 40 34 36 33 31 36 34 36 34 33 30 33 39 41 40 43 43 42 42 42 40 40 40 39 40 42 42 42 40 42 42 47 46 44 45 43 42 44 46 45
40 44 56 42 49 50 43 40 41 34 33 31 34 34 31 32 36 39 42 43 42 43 44 42 39 40 41 40 41 40 40 43 43 43 44 46 47 47 46 45 46 50 50 48
42 55 67 66 49 42 39 38 36 36 34 34 34 37 40 38 45 42 43 41 41 45 46 42 41 44 45 44 43 44 44 44 45 45 46 48 49 50 50 49 50 50 51 53
44 58 60 66 61 39 34 35 31 38 36 29 38 42 45 45 42 40 44 46 47 45 42 42 43 45 45 44 46 47 46 48 47 47 48 50 52 54 52 54 54 54 55 55
59 58 55 62 70 62 38 33 36 28 26 31 42 45 45 44 36 37 45 46 47 45 46 48 47 45 44 48 47 47 49 50 49 50 51 54 53 54 55 57 58 58 57 57
49 62 62 67 70 52 43 40 36 31 30 39 44 45 50 42 40 46 48 49 47 47 49 50 48 46 47 49 50 50 52 51 51 54 56 55 54 55 57 59 60 61 61 64
48 62 62 69 71 49 43 39 29 29 47 46 47 49 53 55 55 52 52 53 52 55 55 50 50 50 51 51 51 52 56 55 58 59 58 56 57 58 56 66 65 63 65 71
58 47 50 57 51 43 42 38 38 39 42 47 48 54 55 57 54 55 55 52 52 52 51 50 50 53 55 56 56 56 58 61 62 61 60 60 62 60 66 68 65 66 69 74
57 55 55 52 47 43 42 44 39 44 46 47 51 57 57 53 54 54 54 53 52 52 52 52 55 53 56 59 62 61 63 64 62 60 62 63 65 66 68 66 66 74 75 80
52 55 51 50 42 39 38 39 41 47 50 53 52 55 56 55 55 53 55 53 52 52 56 57 55 58 58 61 63 64 66 65 62 63 65 66 70 73 72 70 71 76 73 82
52 45 47 44 38 32 31 31 43 49 53 55 52 54 55 53 54 54 55 54 55 57 59 58 60 61 60 63 66 69 70 66 67 66 69 73 75 75 74 72 70 69 76 70

GFSCGP_sfc_rhum_090.txt.gz
RH
31 32 32 25 24 25 21 19 20 22 22 35 38 38 37 40 37 39 41 42 40 40 43 44 53 58 59 51 69 74 78 80 77 68 35 28 28 26 26 24 22 22 23 24
34 39 30 27 26 30 28 27 28 27 23 33 31 40 33 39 37 34 34 36 36 33 35 38 44 41 58 68 64 73 76 76 68 55 35 27 24 24 24 28 26 26 26 25
50 38 32 34 34 36 34 34 27 32 39 38 30 33 35 39 38 39 32 31 29 34 35 35 37 44 53 58 61 65 73 71 59 38 32 27 28 29 30 30 29 29 27 28
51 40 40 42 40 35 42 28 26 37 56 55 39 31 31 32 40 40 37 36 38 37 40 32 42 49 56 58 63 60 67 57 43 35 31 28 28 26 24 25 26 26 25 25
51 48 49 44 37 32 38 29 28 42 50 45 46 35 27 34 39 36 35 35 39 41 44 34 35 41 44 51 61 62 58 48 40 31 30 29 26 25 26 25 28 26 28 28
51 43 54 48 46 45 34 42 50 57 66 68 32 38 26 31 30 28 26 29 31 28 26 29 36 41 44 53 57 58 54 41 34 33 28 30 31 26 26 28 28 30 32 33
60 49 45 54 51 53 49 44 71 85 99 70 38 43 27 31 25 23 24 25 26 26 26 30 39 42 45 54 57 57 44 35 30 30 27 29 31 28 26 28 28 33 32 34
95 76 50 48 53 49 37 42 68 97 49 43 39 41 26 28 28 28 27 25 27 27 27 29 35 40 44 50 52 41 35 34 28 27 26 26 31 30 28 31 30 30 31 32
82 80 41 46 50 49 62 58 86 92 33 38 35 29 24 24 28 29 28 29 32 31 30 31 34 36 37 38 34 33 35 34 28 24 25 25 28 34 36 34 32 31 30 32
59 87 42 43 43 36 50 54 81 85 57 44 28 28 28 27 25 29 29 29 34 35 32 33 32 32 30 29 29 30 29 28 26 26 27 28 28 28 30 29 30 32 31 32
47 56 56 49 44 39 42 50 48 47 48 48 33 26 18 20 22 28 26 29 33 33 32 32 31 29 29 28 29 28 26 26 25 25 27 27 27 26 26 28 30 31 31 30
36 34 59 59 37 34 23 31 42 56 50 34 34 34 17 19 20 27 27 33 33 33 32 30 30 28 26 26 26 26 24 26 28 28 26 27 29 29 28 28 27 27 29 30
29 32 35 36 36 32 37 37 30 29 37 44 39 34 18 22 23 29 30 32 34 33 31 29 27 26 25 24 24 24 26 28 27 27 27 29 30 29 29 28 28 26 27 27
41 29 30 33 32 30 31 37 32 31 37 34 32 30 18 20 28 32 31 30 30 30 30 28 27 25 24 24 24 25 26 27 30 29 29 31 29 31 31 30 29 28 26 27
30 28 27 24 23 24 24 22 33 32 31 35 28 25 20 20 21 28 30 29 30 30 30 31 30 26 26 26 25 26 27 27 26 28 30 31 31 32 30 31 30 28 29 29
27 27 27 24 25 31 29 25 26 21 23 25 25 25 21 22 24 27 28 30 30 30 30 30 29 28 27 26 27 29 28 27 26 28 30 35 34 33 36 34 33 32 35 35
31 30 32 24 26 30 32 28 31 27 23 22 22 24 22 23 27 29 29 30 30 30 30 31 29 28 27 27 27 26 26 28 28 28 31 33 34 37 37 36 36 39 39 37
33 33 40 34 28 30 26 26 26 28 25 22 24 25 32 30 30 28 31 29 28 30 32 30 28 30 30 28 28 28 28 28 29 29 31 34 36 38 38 39 40 39 38 42
34 35 40 45 33 25 22 22 23 27 20 24 30 31 31 33 30 30 32 33 29 31 30 28 28 30 31 30 31 31 31 32 31 33 33 36 38 39 41 44 44 42 44 45
41 39 39 40 62 46 24 22 24 17 19 26 31 31 30 31 20 27 33 34 34 32 31 32 31 28 29 31 31 33 35 35 34 36 38 39 39 43 45 46 48 48 47 48
34 38 43 39 47 31 27 30 26 19 20 23 30 29 32 28 34 38 35 34 32 33 35 34 31 29 32 34 34 35 36 36 39 41 42 43 42 44 45 49 48 51 50 49
37 44 42 42 52 60 30 28 20 20 28 28 31 33 37 40 41 38 37 39 39 39 37 32 33 34 35 36 35 36 40 42 44 46 46 45 44 45 46 52 52 49 50 49
41 32 36 38 31 31 30 30 25 25 28 30 32 36 36 40 39 40 40 38 37 35 36 34 36 39 39 39 39 38 44 45 47 46 46 46 46 45 47 52 52 52 49 47
38 37 41 40 33 27 26 26 30 28 29 31 34 37 39 38 38 39 37 36 35 36 37 37 38 36 40 42 45 44 46 48 47 45 46 46 48 53 49 50 50 47 50 56
34 37 35 33 28 28 27 25 26 29 34 35 39 40 38 38 38 37 37 36 35 37 40 39 38 41 43 46 47 48 51 51 49 46 47 48 49 51 49 45 44 53 53 66
34 33 34 29 26 26 24 24 26 31 33 36 37 42 40 38 39 37 37 36 36 39 43 43 44 45 46 47 50 53 54 51 51 48 47 50 48 46 46 46 49 54 64 69